Weather History for KBZN - March, 2013

Change the Weather History Date:

Tuesday, March 5, 2013

  Actual Average Record
Temperature  
Mean Temperature 18 °F 33 °F  
Max Temperature 33 °F 45 °F 70 °F (1987)
Min Temperature 3 °F 20 °F -27 °F (1951)
Degree Days  
Heating Degree Days 47 32  
Month to date heating degree days 179 166  
Since 1 July heating degree days 5911 5746  
Cooling Degree Days 0 0  
Month to date cooling degree days 0 0  
Year to date cooling degree days 0 0  
Moisture  
Dew Point 10 °F    
Average Humidity 63    
Maximum Humidity 83    
Minimum Humidity 43    
Precipitation  
Precipitation 0.00 in 0.02 in 0.38 in (1990)
Month to date precipitation 0.02 0.11  
Year to date precipitation 0.33 1.02  
Snow  
Snow 0.00 in 0.20 in 4.40 in (1951)
Month to date snowfall T 1.1  
Since 1 July snowfall 17.9 23.4  
Snow Depth 2.00 in    
Sea Level Pressure  
Sea Level Pressure 30.23 in    
Wind  
Wind Speed 2 mph (SE)    
Max Wind Speed 8 mph    
Max Gust Speed 9 mph    
Visibility 10 miles    
Events      
T = Trace of Precipitation, MM = Missing Value Source: NWS Daily Summary

Daily Weather History Graph

Daily Weather History Graph

Search for Another Location

Airport or City:

Trip Planner

Search our weather history database for the weather conditions in past years. The results will help you decide how hot, cold, wet, or windy it might be!

Date:

Astronomy

Mar. 05, 2013 Rise Set
Actual Time 6:55 AM MST 6:17 PM MST
Civil Twilight 6:25 AM MST 6:47 PM MST
Nautical Twilight 5:51 AM MST 7:21 PM MST
Astronomical Twilight 5:16 AM MST 7:56 PM MST
Moon 2:24 AM MST (3/5) 11:46 AM MST (3/5)
Length of Visible Light 12h 21m
Length of Day
11h 21m
Last Quarter, 40% of the Moon is Illuminated
Mar 5
Last Quarter
Mar 11
New
Mar 19
First Quarter
Mar 27
Full
Apr 2
Last Quarter

Hourly Weather History & Observations

Time (MST) Temp. Windchill Dew Point Humidity Pressure Visibility Wind Dir Wind Speed Gust Speed Precip Events Conditions
12:56 AM 9.0 °F - 3.0 °F 77% 30.38 in 10.0 mi Calm Calm - N/A   Clear
1:56 AM 6.8 °F -0.1 °F 1.4 °F 79% 30.18 in 10.0 mi East 3.5 mph - N/A   Clear
3:56 AM 10.9 °F - 3.9 °F 73% 30.34 in 10.0 mi Calm Calm - N/A   Clear
4:56 AM 7.0 °F - 1.9 °F 80% 30.36 in 10.0 mi Calm Calm - N/A   Clear
5:56 AM 10.0 °F 0.4 °F 3.9 °F 76% 30.36 in 10.0 mi SSE 5.8 mph - N/A   Clear
6:56 AM 5.0 °F - -0.0 °F 80% 30.38 in 10.0 mi Calm Calm - N/A   Clear
7:56 AM 8.1 °F 1.4 °F 1.9 °F 76% 30.38 in 10.0 mi ENE 3.5 mph - N/A   Clear
8:56 AM 15.1 °F - 5.0 °F 64% 30.36 in 10.0 mi Calm Calm - N/A   Clear
9:56 AM 17.1 °F - 7.0 °F 65% 30.35 in 10.0 mi Calm Calm - N/A   Clear
10:56 AM 21.9 °F - 10.0 °F 60% 30.30 in 10.0 mi Calm Calm - N/A   Clear
11:56 AM 24.1 °F 19.7 °F 12.0 °F 60% 30.28 in 10.0 mi ESE 3.5 mph - N/A   Clear
3:40 PM 30.2 °F 25.4 °F 15.8 °F 55% 29.98 in 10.0 mi SE 4.6 mph - N/A   Clear
3:56 PM 32.0 °F 27.5 °F 15.1 °F 50% 30.14 in 10.0 mi SE 4.6 mph - N/A   Clear
4:56 PM 32.0 °F - 12.0 °F 44% 30.12 in 10.0 mi Calm Calm - N/A   Clear
5:56 PM 30.9 °F 26.2 °F 14.0 °F 50% 30.12 in 10.0 mi South 4.6 mph - N/A   Clear
6:56 PM 30.0 °F 23.2 °F 15.1 °F 54% 30.14 in 10.0 mi South 6.9 mph - N/A   Clear
7:56 PM 25.0 °F 20.7 °F 16.0 °F 69% 30.14 in 10.0 mi ENE 3.5 mph - N/A   Partly Cloudy
8:56 PM 26.1 °F 21.9 °F 17.1 °F 69% 30.14 in 10.0 mi SE 3.5 mph - N/A   Overcast
9:56 PM 27.0 °F - 18.0 °F 69% 30.13 in 10.0 mi Calm Calm - N/A   Clear
10:56 PM 26.1 °F 21.9 °F 17.1 °F 69% 30.10 in 10.0 mi SSE 3.5 mph - N/A   Partly Cloudy
11:56 PM 25.0 °F 19.3 °F 18.0 °F 75% 30.08 in 10.0 mi South 4.6 mph - N/A   Clear